Location: Baggettsville
(36.4767°N, 86.7303°W)
Time: 23:02:23
(UTC+00:00)

Cosmos 1244 Rocket - Pass Details

Date: 29 October 2020
Orbit: 954 x 997 km, 82.9° (Epoch: 28 November)

Event Time Altitude Azimuth Distance (km) Brightness Sun altitude
Rises 23:36:26 0° 354° (N) 3,662 7.5 -9.3°
Reaches altitude 10° 23:38:56 10° 356° (N) 2,718 6.8 -9.8°
Maximum altitude 23:45:11 79° 83° (E) 997 4.5 -11.1°
Drops below altitude 10° 23:51:27 10° 171° (S) 2,731 6.8 -12.3°
Sets 23:53:58 0° 172° (S) 3,682 7.5 -12.8°
